Location: 5810 Zion Rd, Cleves, OH 45002, USA
(39.1922°N, 84.7113°W)
Time: 18:53:01
(UTC-05:00)

Courier 1B Rocket - Pass Details

Date: 07 December 2019
Orbit: 920 x 1202 km, 28.2° (Epoch: 24 January)

Event Time Altitude Azimuth Distance (km) Brightness Sun altitude
Rises 09:38:30 0° 246° (WSW) 3,649 7.8 16.3°
Reaches altitude 10° 09:41:30 10° 236° (WSW) 2,667 7.3 16.7°
Maximum altitude 09:46:56 30° 178° (S) 1,594 7.2 17.4°
Drops below altitude 10° 09:52:15 10° 119° (ESE) 2,603 8.7 18.0°
Sets 09:55:09 0° 108° (ESE) 3,547 8.9 18.3°
